BEIDOU-3 IGSO-2 (C39)

Last updated on Thu Oct 23 2025 00:03:34 GMT+0000 (Coordinated Universal Time)

1 44337U 19035A 25295.50307316 -.00000070 00000+0 00000+0 0 9993 2 44337 55.2154 160.9536 0037164 202.5424 327.3036 1.00287547 23288
UTC large
Height (km)
Speed (km/s)
/
Latitude / Longitude
Inclination (degrees)
Orbital Period (minutes)
Azimuth
Elevation
Range (km)
Doppler Factor

Next 0 passes for location: London (51.5072 / 0.1276)

Sorry there are no passes over London.